Satellite: NOAA-11
Catalog number: 19531
Epoch time:      06207.82241897
Element set:    0210
Inclination:      098.8279 deg
RA of node:       295.8125 deg
Eccentricity:    0.0010920
Arg of perigee:   235.2981 deg
Mean anomaly:     124.7165 deg
Mean motion:   14.14812081 rev/day
Decay rate:      -1.80e-06 rev/day^2
Epoch rev:           92014
Checksum:              289

Satellite: NOAA-12
Catalog number: 21263
Epoch time:      06207.62307479
Element set:    0702
Inclination:      098.7314 deg
RA of node:       200.7434 deg
Eccentricity:    0.0012586
Arg of perigee:   337.8421 deg
Mean anomaly:     022.2194 deg
Mean motion:   14.25495158 rev/day
Decay rate:        2.0e-07 rev/day^2
Epoch rev:           78986
Checksum:              296

Satellite: MET-3/5
Catalog number: 21655
Epoch time:      06207.94613684
Element set:    0182
Inclination:      082.5514 deg
RA of node:       232.6974 deg
Eccentricity:    0.0012583
Arg of perigee:   307.0880 deg
Mean anomaly:     052.9092 deg
Mean motion:   13.17006862 rev/day
Decay rate:        5.1e-07 rev/day^2
Epoch rev:           71859
Checksum:              305

Satellite: MET-2/21
Catalog number: 22782
Epoch time:      06207.80586742
Element set:    0571
Inclination:      082.5500 deg
RA of node:       300.0241 deg
Eccentricity:    0.0023918
Arg of perigee:   070.3627 deg
Mean anomaly:     290.0108 deg
Mean motion:   13.83607431 rev/day
Decay rate:        2.3e-07 rev/day^2
Epoch rev:           65152
Checksum:              263

Satellite: OKEAN-4
Catalog number: 23317
Epoch time:      06207.70637793
Element set:    0008
Inclination:      082.5382 deg
RA of node:       240.1398 deg
Eccentricity:    0.0020688
Arg of perigee:   243.3298 deg
Mean anomaly:     116.5804 deg
Mean motion:   14.82378527 rev/day
Decay rate:       -3.8e-07 rev/day^2
Epoch rev:           63583
Checksum:              315

Satellite: NOAA-14
Catalog number: 23455
Epoch time:      06207.72214878
Element set:    0204
Inclination:      099.0358 deg
RA of node:       266.4115 deg
Eccentricity:    0.0008658
Arg of perigee:   302.0633 deg
Mean anomaly:     057.9710 deg
Mean motion:   14.13672530 rev/day
Decay rate:       1.98e-06 rev/day^2
Epoch rev:           59665
Checksum:              307

Satellite: SICH-1
Catalog number: 23657
Epoch time:      06207.72733902
Element set:    0810
Inclination:      082.5274 deg
RA of node:       021.0186 deg
Eccentricity:    0.0022541
Arg of perigee:   231.4671 deg
Mean anomaly:     128.4509 deg
Mean motion:   14.81374310 rev/day
Decay rate:       1.00e-06 rev/day^2
Epoch rev:           58784
Checksum:              269

Satellite: NOAA-15
Catalog number: 25338
Epoch time:      06207.91754539
Element set:    0595
Inclination:      098.5162 deg
RA of node:       209.0324 deg
Eccentricity:    0.0009624
Arg of perigee:   257.6009 deg
Mean anomaly:     102.4094 deg
Mean motion:   14.24593884 rev/day
Decay rate:       -9.7e-07 rev/day^2
Epoch rev:           42637
Checksum:              323

Satellite: RESURS
Catalog number: 25394
Epoch time:      06207.77023216
Element set:    0438
Inclination:      098.4916 deg
RA of node:       269.3218 deg
Eccentricity:    0.0002440
Arg of perigee:   061.9230 deg
Mean anomaly:     298.2195 deg
Mean motion:   14.24107168 rev/day
Decay rate:        6.0e-08 rev/day^2
Epoch rev:           41803
Checksum:              283

Satellite: FENGYUN1
Catalog number: 25730
Epoch time:      06207.59678985
Element set:     784
Inclination:      098.6264 deg
RA of node:       198.6556 deg
Eccentricity:    0.0015100
Arg of perigee:   031.3342 deg
Mean anomaly:     328.8721 deg
Mean motion:   14.11814804 rev/day
Decay rate:       2.31e-06 rev/day^2
Epoch rev:           37157
Checksum:              308

Satellite: OKEAN-0
Catalog number: 25860
Epoch time:      06208.61901744
Element set:     809
Inclination:      097.7324 deg
RA of node:       221.0671 deg
Eccentricity:    0.0001433
Arg of perigee:   042.6186 deg
Mean anomaly:     317.5129 deg
Mean motion:   14.73378081 rev/day
Decay rate:        5.5e-07 rev/day^2
Epoch rev:           37770
Checksum:              290

Satellite: NOAA-16
Catalog number: 26536
Epoch time:      06207.95929528
Element set:    0971
Inclination:      099.0686 deg
RA of node:       175.0510 deg
Eccentricity:    0.0010883
Arg of perigee:   012.7556 deg
Mean anomaly:     347.3888 deg
Mean motion:   14.12358467 rev/day
Decay rate:       3.36e-06 rev/day^2
Epoch rev:           30119
Checksum:              331

Satellite: NOAA-17
Catalog number: 27453
Epoch time:      06208.36838097
Element set:     989
Inclination:      098.6200 deg
RA of node:       279.7976 deg
Eccentricity:    0.0011172
Arg of perigee:   322.3008 deg
Mean anomaly:     037.7393 deg
Mean motion:   14.23796878 rev/day
Decay rate:       2.07e-06 rev/day^2
Epoch rev:           21249
Checksum:              341

